Wind_Speed
3 2 2 2 2 3 4 4 5 6 7 8 9 10 11 12 14 15 16 16 17 17 18 18 18 18 19 19 19 19 19 19 19 18 18 18 17 17 16 15 14 13 12 11
2 2 2 2 3 4 5 5 6 7 7 9 10 11 12 13 15 16 17 17 18 19 19 20 20 20 20 20 21 21 21 21 21 20 20 20 20 19 18 17 16 15 14 13
2 3 3 3 5 5 6 7 8 8 9 10 11 12 14 15 16 17 17 18 19 20 21 21 22 22 22 22 22 23 23 23 23 22 22 22 22 21 21 20 19 17 16 15
5 6 5 6 6 7 8 9 9 10 11 13 14 15 16 17 18 19 20 20 21 22 23 23 24 24 24 24 25 25 25 25 25 24 24 24 24 24 23 23 22 21 19 18
7 8 7 8 9 10 10 11 12 13 14 16 17 19 20 21 22 22 23 24 24 25 25 26 26 27 27 27 28 28 28 27 27 27 26 26 26 26 26 25 25 24 22 21
11 11 10 11 12 12 13 13 16 16 18 19 20 21 22 24 25 26 27 27 28 28 29 29 30 30 30 30 30 31 31 31 30 30 29 29 29 29 29 28 27 27 25 24
14 14 14 15 15 16 16 17 18 20 21 22 24 25 26 27 28 29 31 32 33 33 33 34 34 34 34 34 34 34 34 34 34 33 33 32 32 32 31 31 30 29 29 28
18 18 17 19 19 20 20 21 22 23 24 26 27 29 30 31 32 33 34 36 37 38 38 38 38 38 38 38 38 37 37 37 37 36 36 36 35 35 34 34 33 32 32 31
21 21 22 22 23 23 24 25 26 27 28 30 31 32 34 35 36 38 39 40 41 42 42 42 43 43 42 42 42 41 41 40 40 40 40 39 39 38 38 37 36 35 35 34
25 25 26 26 27 27 28 29 30 31 33 34 35 37 38 39 41 43 44 45 46 46 47 47 47 48 47 46 45 45 46 45 44 44 44 43 43 43 42 41 40 39 38 37
28 29 29 29 30 31 32 33 34 35 37 38 39 41 42 44 46 47 48 49 50 50 51 51 51 52 52 52 51 50 49 49 49 48 47 47 47 46 46 45 44 43 42 41
32 32 33 32 34 35 36 37 38 40 41 42 44 45 47 48 50 51 52 53 54 54 55 55 55 55 56 56 55 54 53 52 52 51 51 50 50 50 50 49 48 47 46 45
36 36 36 37 37 39 40 41 43 44 46 47 48 49 51 52 53 54 55 56 57 57 58 58 58 58 59 58 58 57 56 55 54 54 54 53 53 53 52 52 52 51 50 48
39 39 40 40 42 43 44 46 47 48 49 50 51 53 54 55 57 58 58 59 60 60 60 60 60 60 60 60 59 59 58 58 57 56 56 56 56 56 55 55 55 54 53 52
41 42 43 44 45 46 48 49 50 51 52 53 54 55 56 58 59 60 61 61 62 62 62 63 63 63 62 61 60 60 59 58 57 57 57 57 57 57 57 57 57 57 56 55
44 45 46 47 48 50 51 52 53 53 54 55 57 58 59 60 61 62 63 64 64 64 64 64 65 64 63 61 60 59 58 56 55 55 55 56 56 56 57 57 57 57 57 56
48 48 49 51 52 53 54 55 55 56 57 58 59 60 61 62 63 64 65 65 66 66 65 66 65 63 62 61 60 59 57 56 55 54 54 54 54 55 55 56 56 57 57 57
51 52 53 54 55 55 56 57 57 58 59 60 61 62 63 64 65 66 66 66 66 66 66 66 65 63 61 61 60 59 57 56 54 53 53 53 52 53 54 55 56 56 57 58
54 55 56 56 57 57 58 58 59 60 61 62 63 64 65 65 66 66 67 67 67 66 65 65 64 62 61 60 59 58 56 55 53 53 52 52 51 51 52 53 54 55 57 58
56 57 57 58 58 59 59 60 61 62 63 63 64 64 65 65 66 67 67 67 66 66 65 63 62 61 60 59 58 56 55 53 52 51 50 51 50 49 50 51 53 55 56 58
59 59 59 59 60 60 61 62 62 63 63 64 64 64 65 65 66 67 66 65 65 65 64 62 60 59 58 56 55 53 52 51 49 48 48 48 48 48 48 49 50 53 55 56
61 60 61 61 61 61 62 62 62 63 63 63 64 64 65 65 66 66 65 64 63 62 61 59 57 56 54 53 51 50 49 48 46 45 45 45 46 45 46 47 48 50 52 54
62 63 63 62 62 62 62 62 62 62 62 63 63 64 64 64 65 64 62 61 61 59 58 56 54 52 51 50 49 48 46 44 42 41 41 42 43 42 42 44 46 47 49 51
64 64 64 63 63 62 62 61 61 61 61 61 62 62 63 63 62 61 60 58 58 57 55 53 52 51 49 48 47 45 43 41 40 40 40 40 40 40 40 40 43 45 47 48
65 65 64 63 62 61 60 59 59 58 58 59 60 61 61 61 60 58 56 55 55 54 53 52 51 49 48 46 45 43 41 40 39 39 39 38 38 38 38 38 39 42 44 46
64 64 62 60 59 58 57 56 56 56 57 57 58 59 59 58 56 54 53 52 52 52 51 49 48 46 45 44 42 41 40 40 38 37 36 36 36 36 36 35 37 40 42 44
61 59 57 57 56 56 55 55 56 56 56 57 57 57 56 54 52 51 51 50 50 49 48 47 45 44 42 41 41 40 39 38 37 35 34 34 34 34 34 33 34 37 40 42
Wind_Direction
88 73 54 35 0 342 333 332 326 318 315 314 312 310 309 309 310 311 311 311 310 308 308 306 305 304 302 301 300 298 295 291 290 288 286 286 285 285 287 288 290 292 293 294
53 23 7 342 330 326 324 322 318 314 311 308 308 308 308 309 310 311 311 310 308 308 307 306 304 302 300 298 298 296 295 291 288 287 285 284 282 280 280 281 282 283 284 284
328 325 323 317 317 312 310 310 308 306 304 303 303 303 305 306 307 308 309 310 309 307 306 305 303 300 299 296 294 293 292 290 287 284 283 282 281 278 277 276 276 276 277 276
304 308 310 308 309 307 304 303 301 299 298 297 298 300 301 302 304 305 306 306 306 306 304 303 302 300 299 297 294 292 290 288 286 283 281 280 278 276 274 273 272 271 272 272
295 297 299 298 299 300 300 298 297 296 297 297 299 300 300 301 301 301 302 302 302 302 300 300 299 298 297 295 294 292 290 287 285 283 281 279 277 274 273 271 269 268 267 267
291 291 290 293 295 296 296 292 295 296 296 298 300 300 301 302 302 302 302 302 301 301 300 299 298 296 295 293 292 290 288 286 284 281 279 277 275 273 271 269 267 265 264 263
289 291 292 293 294 295 294 293 295 296 297 298 299 300 301 301 301 301 301 301 300 299 298 297 296 295 293 291 290 289 287 285 283 280 277 274 272 271 269 267 265 264 262 261
289 291 292 293 293 294 294 295 296 296 297 298 298 299 300 300 300 300 300 299 299 297 296 295 294 292 291 290 288 287 285 283 281 279 276 273 271 269 267 265 264 262 261 259
288 290 290 291 292 292 293 294 296 297 297 297 297 298 299 299 300 300 299 299 298 297 296 294 293 291 290 288 287 285 284 282 279 277 275 273 270 268 266 264 262 260 259 257
285 287 287 288 290 291 293 294 296 296 297 297 298 298 299 299 299 299 299 298 297 296 295 294 293 291 289 288 285 284 282 280 278 276 274 271 269 267 265 263 261 259 257 256
282 284 285 287 289 291 292 294 295 296 297 298 298 298 298 298 298 298 298 297 296 295 294 293 292 291 289 288 286 284 281 279 277 274 272 270 267 265 264 262 260 258 256 255
280 282 285 287 288 290 292 294 295 296 297 297 298 298 298 298 298 298 298 297 297 296 295 294 293 291 290 289 287 285 281 278 275 273 270 268 265 263 261 260 258 257 255 254
280 282 285 287 288 290 291 293 294 295 296 297 297 298 298 298 298 298 298 297 297 296 296 295 295 293 291 289 287 284 281 278 275 272 269 267 264 261 259 258 256 255 254 253
281 283 285 286 288 290 291 293 294 295 295 296 297 297 298 298 299 299 298 298 297 297 297 296 296 294 293 290 288 284 281 279 276 272 269 267 264 262 259 256 254 253 252 251
282 284 285 287 288 290 291 293 294 294 295 295 296 297 297 298 298 298 298 298 297 297 297 297 296 296 294 291 288 286 283 280 277 273 269 267 264 261 259 257 254 252 250 249
283 285 287 288 289 290 292 292 293 294 294 295 296 296 297 297 298 298 298 298 298 298 297 297 297 296 294 292 289 287 285 282 278 274 270 267 265 262 258 256 253 250 248 247
284 286 287 289 289 290 291 292 293 293 294 295 295 296 296 297 298 298 298 298 298 298 298 298 297 295 294 292 290 288 285 282 279 274 270 267 264 261 258 254 251 248 247 245
284 286 287 288 289 290 291 292 292 293 293 294 295 295 296 296 297 298 298 299 299 298 298 297 297 295 293 292 290 288 285 282 279 275 271 267 264 261 258 254 250 246 244 243
284 286 287 288 289 290 290 291 291 292 292 293 294 295 296 297 298 298 299 299 299 298 298 297 296 295 294 294 292 289 286 283 279 275 271 267 263 261 259 255 250 246 243 241
284 285 286 287 288 289 289 290 291 291 292 292 294 295 296 297 298 298 299 299 299 298 298 298 297 296 295 294 292 289 287 284 280 276 272 267 264 262 259 256 251 246 244 242
284 284 285 287 287 288 289 289 290 290 291 292 294 295 296 297 298 298 299 298 298 298 298 298 298 297 296 295 293 290 287 285 281 277 273 268 265 262 259 256 251 247 244 242
283 284 285 286 287 288 288 289 290 290 291 292 294 294 295 296 297 297 298 298 298 298 298 299 299 298 297 296 294 291 289 286 281 277 273 269 266 263 259 255 250 245 242 240
282 284 285 286 287 287 288 288 289 290 291 292 293 294 295 296 296 297 297 297 298 298 299 300 300 299 298 297 295 293 290 286 282 278 275 272 267 263 258 253 248 243 240 238
282 284 285 285 286 287 287 288 289 290 291 292 293 294 295 296 297 297 297 297 298 299 300 301 300 299 298 297 296 294 290 286 283 280 277 273 268 264 259 252 247 241 239 237
282 283 283 284 285 286 287 287 288 289 290 291 292 293 294 295 296 297 297 298 299 300 301 301 301 299 297 296 296 294 291 287 285 283 278 273 268 264 259 253 246 239 236 234
281 282 282 283 283 284 285 286 287 289 290 290 292 293 294 295 296 297 298 299 300 301 302 302 301 300 298 296 295 293 291 287 284 282 278 272 267 262 258 253 246 239 234 231
279 280 280 280 281 282 283 285 286 287 288 290 292 293 294 295 296 297 298 299 300 302 302 302 301 300 299 298 297 294 291 288 284 281 278 272 266 261 257 250 243 236 230 226
Height
5830 5830 5830 5830 5830 5830 5830 5830 5830 5830 5829 5828 5827 5826 5825 5824 5822 5821 5819 5817 5816 5814 5813 5811 5809 5808 5806 5805 5804 5803 5802 5801 5799 5799 5798 5797 5796 5795 5794 5793 5792 5791 5790 5789
5829 5829 5829 5829 5829 5829 5828 5828 5828 5827 5827 5826 5824 5823 5822 5821 5819 5818 5816 5814 5813 5811 5809 5807 5806 5804 5802 5801 5799 5798 5797 5796 5795 5794 5793 5792 5792 5791 5790 5790 5789 5788 5787 5786
5828 5827 5828 5828 5828 5827 5826 5826 5825 5825 5825 5822 5821 5820 5819 5817 5816 5814 5812 5810 5809 5807 5805 5803 5801 5800 5798 5796 5795 5793 5792 5791 5790 5789 5788 5787 5787 5786 5786 5785 5784 5784 5783 5783
5825 5826 5826 5828 5825 5824 5823 5823 5822 5821 5820 5819 5818 5816 5814 5813 5811 5809 5807 5806 5804 5802 5800 5798 5796 5794 5792 5791 5789 5788 5786 5785 5784 5783 5782 5781 5781 5780 5780 5780 5779 5779 5779 5778
5822 5822 5822 5823 5822 5820 5820 5819 5818 5817 5815 5814 5813 5811 5810 5808 5806 5804 5802 5800 5798 5796 5794 5792 5790 5788 5786 5784 5783 5781 5780 5778 5777 5776 5776 5775 5774 5773 5773 5773 5773 5773 5773 5773
5819 5818 5818 5819 5818 5816 5816 5815 5813 5812 5810 5809 5807 5806 5804 5802 5799 5797 5795 5793 5791 5789 5787 5785 5783 5781 5779 5777 5775 5774 5772 5771 5769 5769 5768 5767 5767 5766 5765 5765 5766 5766 5766 5766
5814 5813 5813 5813 5812 5811 5811 5811 5808 5806 5804 5803 5801 5799 5797 5794 5792 5790 5787 5785 5783 5780 5778 5776 5774 5772 5770 5768 5766 5765 5763 5762 5760 5759 5759 5758 5758 5757 5757 5757 5757 5758 5758 5759
5808 5808 5810 5807 5805 5805 5804 5802 5801 5799 5797 5795 5793 5791 5789 5786 5784 5781 5779 5776 5774 5771 5769 5766 5764 5762 5760 5758 5756 5754 5753 5752 5750 5749 5748 5748 5748 5747 5747 5747 5748 5748 5749 5750
5803 5804 5801 5800 5798 5797 5796 5795 5793 5792 5790 5788 5785 5783 5780 5778 5775 5772 5769 5766 5763 5760 5758 5755 5752 5750 5748 5746 5744 5742 5741 5739 5738 5737 5736 5736 5736 5736 5736 5736 5737 5738 5739 5740
5795 5794 5793 5791 5790 5789 5788 5786 5785 5783 5781 5778 5776 5773 5770 5768 5764 5761 5758 5754 5751 5748 5745 5742 5739 5736 5734 5733 5731 5729 5727 5726 5725 5724 5723 5723 5722 5723 5723 5724 5725 5726 5727 5728
5786 5785 5784 5783 5781 5780 5778 5777 5775 5773 5771 5768 5765 5762 5759 5756 5752 5749 5745 5741 5737 5734 5730 5727 5724 5721 5718 5716 5715 5713 5712 5710 5709 5709 5708 5708 5708 5708 5709 5710 5711 5712 5714 5715
5776 5775 5774 5774 5772 5770 5768 5766 5764 5762 5759 5756 5753 5750 5747 5743 5739 5735 5731 5726 5722 5718 5714 5711 5707 5704 5701 5698 5696 5695 5693 5692 5691 5691 5690 5690 5691 5692 5692 5694 5695 5697 5699 5701
5765 5764 5763 5762 5761 5759 5757 5754 5752 5749 5746 5743 5740 5736 5732 5728 5724 5720 5715 5710 5706 5702 5697 5693 5689 5685 5681 5678 5675 5673 5672 5672 5671 5671 5670 5671 5671 5673 5675 5677 5678 5681 5683 5685
5753 5753 5752 5750 5749 5746 5744 5741 5739 5736 5733 5729 5726 5722 5718 5713 5708 5703 5699 5694 5689 5684 5679 5675 5670 5665 5661 5658 5654 5652 5650 5649 5649 5649 5649 5649 5650 5652 5654 5657 5660 5663 5666 5668
5742 5740 5739 5737 5736 5733 5730 5728 5725 5722 5718 5715 5711 5706 5702 5697 5692 5687 5682 5676 5671 5666 5661 5656 5651 5646 5641 5637 5633 5631 5628 5627 5626 5626 5626 5627 5628 5630 5632 5635 5639 5643 5647 5650
5728 5727 5725 5723 5722 5719 5716 5713 5710 5707 5703 5699 5695 5690 5686 5681 5676 5670 5664 5658 5653 5648 5643 5637 5632 5626 5621 5616 5613 5610 5607 5605 5603 5603 5603 5604 5605 5607 5610 5613 5617 5622 5627 5632
5714 5713 5711 5709 5707 5704 5701 5698 5695 5691 5687 5683 5679 5674 5669 5664 5659 5653 5647 5641 5635 5629 5623 5617 5612 5607 5601 5596 5592 5589 5587 5585 5583 5581 5581 5582 5583 5585 5588 5591 5596 5601 5607 5612
5699 5698 5696 5694 5691 5688 5686 5682 5678 5674 5670 5666 5662 5657 5652 5646 5641 5635 5630 5623 5617 5612 5605 5598 5592 5587 5582 5577 5572 5569 5567 5565 5563 5561 5561 5561 5562 5564 5566 5570 5574 5580 5587 5592
5683 5681 5679 5677 5674 5672 5669 5665 5661 5657 5653 5649 5644 5639 5634 5629 5623 5617 5611 5605 5598 5593 5587 5579 5573 5568 5563 5558 5553 5549 5547 5544 5542 5541 5541 5541 5542 5544 5546 5549 5554 5559 5565 5571
5667 5665 5663 5660 5658 5655 5652 5648 5644 5640 5636 5631 5626 5622 5617 5611 5605 5599 5593 5587 5580 5572 5567 5561 5555 5550 5544 5539 5534 5530 5527 5525 5523 5522 5521 5522 5523 5525 5527 5530 5533 5539 5544 5550
5649 5647 5645 5642 5640 5637 5634 5630 5626 5622 5618 5613 5608 5604 5599 5593 5587 5580 5574 5569 5563 5554 5548 5543 5537 5531 5526 5521 5517 5512 5509 5506 5504 5503 5503 5503 5504 5506 5508 5510 5514 5519 5524 5530
5631 5629 5627 5624 5622 5619 5616 5612 5608 5604 5600 5595 5590 5585 5580 5575 5569 5562 5556 5549 5544 5537 5531 5526 5520 5514 5509 5504 5500 5496 5492 5489 5487 5486 5485 5485 5486 5487 5489 5492 5495 5500 5505 5512
5612 5610 5608 5605 5603 5600 5597 5594 5590 5586 5582 5577 5572 5567 5561 5556 5550 5544 5540 5533 5526 5520 5515 5509 5504 5498 5493 5488 5484 5480 5476 5473 5471 5470 5469 5469 5469 5470 5472 5475 5478 5483 5488 5494
5593 5591 5589 5586 5584 5582 5579 5575 5571 5568 5563 5559 5554 5548 5543 5538 5533 5527 5520 5516 5510 5505 5499 5494 5489 5483 5478 5473 5469 5465 5462 5459 5457 5456 5455 5454 5454 5454 5456 5458 5462 5467 5472 5478
5573 5571 5569 5567 5565 5563 5560 5557 5553 5550 5546 5541 5537 5531 5525 5520 5516 5511 5505 5500 5495 5489 5484 5479 5474 5468 5463 5459 5455 5452 5448 5446 5443 5441 5440 5439 5439 5440 5441 5444 5447 5452 5457 5464
5554 5552 5551 5549 5547 5544 5542 5539 5536 5533 5529 5525 5521 5515 5509 5504 5499 5494 5490 5485 5480 5475 5470 5465 5460 5455 5450 5446 5442 5438 5435 5432 5430 5428 5426 5425 5425 5426 5427 5430 5433 5438 5444 5450
5535 5534 5532 5531 5529 5527 5524 5522 5520 5516 5512 5508 5505 5500 5494 5489 5484 5480 5476 5471 5466 5461 5456 5451 5446 5441 5437 5433 5429 5425 5422 5419 5416 5415 5413 5412 5412 5413 5414 5417 5421 5425 5431 5438